Space Coast Regional Airport
KTIX : now visible

Airfield :











YOU CAN JOIN US ON...

 
LOGIN :

Register | Disclaimer

   EN    FR    IT 

 









Legend :    VFR   Marginal VFR   IFR   Intensive IFR   Very Intensive IFR
Visi :
Ceiling :
>= 8 km
>= 3000ft
5 to 8 km
1000 to 3000 ft
1500m to 5 km
500 to 1000 ft
800 to 1500m
200 to 500 ft
< 800m
< 200 ft
Symbols :   Thunderstorms  Fog  Heavy snow  Heavy precipitations  Wind > 20 kt






- Airport Elevation : 34 ft


KTIX - Space Coast Regional

CURRENT METAR :
  • 031747Z 08009KT 7SM FEW030 27/11 A2999

EXPIRED METARs :
  • 031652Z 10008KT 7SM FEW040 26/10 A3001
  • 031556Z 04010KT 7SM FEW040 26/11 A3004

TAF KTIX
Valid from the 03 at 18:00 until the 04 at 18:00 UTC


031737Z 0318/0418 09009KT P6SM FEW040 FEW250
FM040300 VRB04KT P6SM FEW150 SCT250



MET'MAP, your aeronautical weather chart ! - Copyright ORBIFLY December 2007 - Disclaimer

ORBIFLY MET'MAP TEAM :

Programming & Development : Alexandra Zaïnal
Concept & original design : Baudouin d'Aumeries
Assistance for programming : Marc-Olivier Méhu
Technical & hardware support : Manuel Goepfert

Contact : metmap@orbifly.com




SOURCES & CREDITS :

   NOAA       Earth
Advisory